User: anonymous   Login
Location: Caltech
(34.1382°N, 118.1253°W)
Time: 12:08:11
(UTC-07:00)
Language:

Spot 4 Rocket - Orbit

View from above orbital plane
View from above orbital plane
View from above satellite
View from above satellite

Ground track
Ground track

The orbit data is extracted from the following two-line orbital elements,

1 25261U 98017B   15141.73090056  .00000331  00000-0  13585-3 0  9995
2 25261 098.4534 091.6301 0003562 154.4413 267.6023 14.33294291896501
Epoch (UTC): 21 May 2015 17:32:29
Eccentricity: 0.0003562
inclination: 98.4534°
perigee height: 778 km
apogee height: 783 km
right ascension of ascending node: 91.6301°
argument of perigee: 154.4413°
revolutions per day: 14.33294291
mean anomaly at epoch: 267.6023°
orbit number at epoch: 89650

The dashed part of the orbit path shows where the satellite is in the earth's shadow,  

DLR